Lancaster, CA

12:18 PM PST on January 19, 2018 (GMT -0800)
Gen Fox

Weather History for KWJF - October, 2012

Change the Weather History Date:

Thursday, October 11, 2012

  Actual Average Record
Temperature  
Mean Temperature 58 °F 64 °F  
Max Temperature 65 °F 81 °F 97 °F (1954)
Min Temperature 50 °F 48 °F 34 °F (2013)
Degree Days  
Heating Degree Days 7    
Month to date heating degree days 11  
Since 1 July heating degree days 11  
Cooling Degree Days 0    
Month to date cooling degree days 85  
Year to date cooling degree days 2259  
Growing Degree Days 7 (Base 50)    
Moisture  
Dew Point 42 °F    
Average Humidity 57    
Maximum Humidity 74    
Minimum Humidity 40    
Precipitation  
Precipitation 0.00 in 0.01 in 0.61 in (1957)
Month to date precipitation 0.00 0.10  
Year to date precipitation 1.74 5.35  
Since 1 July precipitation 0.04  
Snow  
Snow 0.00 in - 0.00 in ()
Month to date snowfall 0.0  
Since 1 July snowfall 0.0  
Since 1 September snowfall 0.0  
Snow Depth 0.00 in    
Sea Level Pressure  
Sea Level Pressure 29.91 in    
Wind  
Wind Speed 12 mph (WSW)    
Max Wind Speed 20 mph    
Max Gust Speed 28 mph    
Visibility 10 miles    
Events Thunderstorm    
T = Trace of Precipitation, MM = Missing Value Source: NWS Daily Summary

Daily Weather History Graph

Daily Weather History Graph

Search for Another Location

Airport or City:

Trip Planner

Search our weather history database for the weather conditions in past years. The results will help you decide how hot, cold, wet, or windy it might be!

Date:

Astronomy

Oct. 11, 2012 Rise Set
Actual Time 6:55 AM PDT 6:22 PM PDT
Civil Twilight 6:30 AM PDT 6:47 PM PDT
Nautical Twilight 6:01 AM PDT 7:17 PM PDT
Astronomical Twilight 5:31 AM PDT 7:46 PM PDT
Moon 2:48 AM PDT (10/11) 3:53 PM PDT (10/11)
Length of Visible Light 12h 17m
Length of Day
11h 26m
Waning Crescent, 17% of the Moon is Illuminated
Oct 11
Waning Crescent
Oct 15
New
Oct 21
First Quarter
Oct 29
Full
Nov 6
Last Quarter

Hourly Weather History & Observations

Time (PDT) Temp. Dew Point Humidity Pressure Visibility Wind Dir Wind Speed Gust Speed Precip Events Conditions
12:56 AM 57.0 °F 42.1 °F 57% 29.90 in 10.0 mi West 12.7 mph - N/A   Clear
1:56 AM 55.9 °F 42.1 °F 60% 29.89 in 10.0 mi WSW 15.0 mph - N/A   Clear
2:56 AM 55.0 °F 42.1 °F 62% 29.88 in 10.0 mi North - - N/A   Clear
3:56 AM 55.0 °F 41.0 °F 59% 29.88 in 10.0 mi SW 13.8 mph - N/A   Clear
4:56 AM 54.0 °F 42.1 °F 64% 29.87 in 10.0 mi WSW 12.7 mph - N/A   Clear
5:56 AM 50.0 °F 41.0 °F 71% 29.90 in 10.0 mi West 8.1 mph - N/A   Clear
6:56 AM 50.0 °F 42.1 °F 74% 29.91 in 10.0 mi West 10.4 mph - N/A   Mostly Cloudy
7:56 AM 53.1 °F 43.0 °F 69% 29.91 in 10.0 mi West 9.2 mph - N/A   Mostly Cloudy
8:56 AM 57.0 °F 44.1 °F 62% 29.92 in 10.0 mi West 11.5 mph - N/A   Mostly Cloudy
9:56 AM 59.0 °F 42.1 °F 53% 29.92 in 10.0 mi SSW 10.4 mph - N/A   Clear
10:56 AM 62.1 °F 39.0 °F 43% 29.90 in 10.0 mi WSW 11.5 mph - N/A   Mostly Cloudy
11:56 AM 64.0 °F 39.9 °F 41% 29.90 in 10.0 mi SSW 16.1 mph 20.7 mph N/A   Mostly Cloudy
12:56 PM 63.0 °F 41.0 °F 45% 29.89 in 10.0 mi WSW 13.8 mph - N/A   Clear
1:16 PM 62.6 °F 39.2 °F 42% 29.90 in 10.0 mi SW 8.1 mph - N/A   Mostly Cloudy
1:56 PM 64.0 °F 39.9 °F 41% 29.87 in 10.0 mi SSW 13.8 mph - N/A Thunderstorm Mostly Cloudy
2:56 PM 62.1 °F 39.9 °F 44% 29.88 in 10.0 mi SSW 17.3 mph - N/A Thunderstorm Mostly Cloudy
3:56 PM 60.1 °F 41.0 °F 49% 29.89 in 10.0 mi SSW 16.1 mph - N/A Thunderstorm Mostly Cloudy
4:56 PM 57.0 °F 41.0 °F 55% 29.90 in 10.0 mi West 15.0 mph - N/A Thunderstorm Mostly Cloudy
5:56 PM 57.0 °F 41.0 °F 55% 29.90 in 10.0 mi WSW 13.8 mph - N/A Thunderstorm Overcast
6:56 PM 54.0 °F 43.0 °F 66% 29.91 in 10.0 mi SW 6.9 mph - N/A Thunderstorm Clear
7:56 PM 53.1 °F 42.1 °F 66% 29.93 in 10.0 mi WSW 12.7 mph - N/A Thunderstorm Clear
8:56 PM 53.1 °F 42.1 °F 66% 29.93 in 10.0 mi SW 10.4 mph - N/A Thunderstorm Clear
9:56 PM 52.0 °F 42.1 °F 69% 29.95 in 10.0 mi SW 8.1 mph - N/A   Partly Cloudy
10:56 PM 52.0 °F 42.1 °F 69% 29.95 in 10.0 mi WSW 11.5 mph - N/A   Clear
11:56 PM 52.0 °F 43.0 °F 71% 29.95 in 10.0 mi WSW 11.5 mph - N/A   Clear